Weather in Khotmyzhsk

Russia / Belgorod Oblast     50°35′47″N   35°51′47″E
temp.,
°C
wind,
m/s
gust,
m/s
humid.,
%
clouds,
%
prec.,
mm/h
press.,
hPa
HPBL,
m
5 august, thu
thu500:00+18e374983 0.0 1017119
03:00+18ese365140 0.0 1017122
06:00+18se375695 0.0 1017165
09:00+25s46365 0.0 1016620
12:00+29sw6529100 0.0 10152729
15:00+28wsw2333100 0.0 1014952
18:00+29sw343198 0.0 10131117
21:00+23sse33439 0.0 101329
6 august, fri
fri600:00+21se48475 0.0 1011123
03:00+19se410525 0.0 1012173
06:00+19ese4951100 0.0 1010170
09:00+27se4635100 0.0 1009472
12:00+33sse68315 0.0 10072082
15:00+35s79215 0.0 10063105
18:00+34ssw682998 0.1 10052324
21:00+25ssw3363100 2.2 100636
7 august, sat
sat700:00+23e3472100 0.1 100653
03:00+21ese597039 0.3 1006138
06:00+19ese51378100 2.1 1006312
09:00+21se5117598 4.9 1007379
12:00+26sse4654100 1.6 1008626
15:00+29s2343100 2.3 1007869
18:00+31sw123999 0.0 1007818
21:00+25nnw2255100 0.0 100832
8 august, sun
sun800:00+21nnw51083100 0.0 1010263
03:00+20n51091100 0.4 1011325
06:00+19n41092100 0.0 1012319
09:00+23n67728 0.6 1012582
12:00+29n66492 0.0 10121271
15:00+31nne444130 0.0 10122007
18:00+30n544338 0.0 10121562
21:00+24nne410630 0.4 1014282
9 august, mon
mon900:00+21nne511592 0.0 1015250
03:00+20ne396010 0.0 1015233
06:00+19nne37635 0.0 1015176
09:00+25nne45435 0.0 1015534
12:00+29n33320 0.0 10151433
15:00+32n44231 0.0 10142368
18:00+30n54220 0.0 10141693
21:00+23n49440 0.0 1015159